Regional Weather Roundup
Issued by NWS

Home | Current Version | Previous Version | Text Only | Print | Product List | Glossary On
Versions: 1 2 3 4 5 6 7 8 9 10 11 12 13 14 15 16 17 18 19 20 21 22 23 24 25 26 27 28 29 30 31 32 33 34 35 36 37 38 39 40 41 42 43 44 45 46 47 48 49 50
000
ASUS45 KCYS 180410
RWRWY

WYOMING REGIONAL WEATHER ROUNDUP
NATIONAL WEATHER SERVICE CHEYENNE WY
900 PM MST WED DEC 17 2014

NOTE:  "FAIR" INDICATES FEW OR NO CLOUDS BELOW 12,000 FEET
WITH NO SIGNIFICANT WEATHER AND/OR OBSTRUCTIONS TO VISIBILITY.

WYZ001-180500-
YELLOWSTONE NATIONAL PARK

CITY           SKY/WX    TMP DP  RH WIND       PRES   REMARKS
LK YELLOWSTONE   N/A     18  15  88 CALM      29.98S
W YELLOWSTONE  NOT AVBL

$$
WYZ002>013-054>058-071-098>099-180500-
NORTHERN WYOMING

CITY           SKY/WX    TMP DP  RH WIND       PRES   REMARKS
JACKSON        FAIR      10  10 100 NE3       30.00R
CODY           FAIR      16  16 100 SW6       29.91S WCI   7
GREYBULL       FAIR      13  11  92 W5        29.98R WCI   5
WORLAND        FAIR       4   1  88 CALM      29.96S
SHERIDAN       FAIR      15  11  83 S3        29.93S
BUFFALO        FAIR      26  18  71 SW7       29.94S WCI  18
GILLETTE       FAIR      19  16  88 SW6       29.94S WCI  11
HULETT           N/A    N/A N/A N/A MISG        N/A
NEWCASTLE      FOG       14  14 100 CALM      29.98S VSB 1/4

$$
WYZ014>020-022>026-101>103-180500-
CENTRAL WYOMING

CITY           SKY/WX    TMP DP  RH WIND       PRES   REMARKS
BIG PINEY      FAIR      12   9  87 N7        30.01R WCI   1
PINEDALE       MOCLDY    10  10 100 W6        30.01R WCI   1
DUBOIS         CLOUDY    25  16  68 NW10      29.94R WCI  15
LANDER         FOG        2   0  91 SE3       29.96R VSB 1/4
RIVERTON       FOG       16  12  84 CALM      29.98R VSB 1/4
CASPER         FAIR      18  13  80 MISG      29.95S
DOUGLAS        FAIR      17  13  84 CALM      29.97R

$$
WYZ021-027>030-104>119-180500-
SOUTHERN WYOMING

CITY           SKY/WX    TMP DP  RH WIND       PRES   REMARKS
EVANSTON       CLOUDY    27  20  75 W7        30.01R WCI  19
KEMMERER       FAIR      23  18  80 N5        30.00R WCI  17
FORT BRIDGER   MOCLDY    30  22  71 W7        30.03R WCI  23
ROCK SPRINGS   FAIR      20  15  81 SW5       29.99S WCI  13
DIXON          FOG      N/A N/A N/A NE3       30.05R VSB 1/4
RAWLINS        FAIR      17  12  80 S3        29.97S
SARATOGA       FAIR       9   5  85 CALM      29.99S
LARAMIE        FAIR      11   7  84 SE6       29.95S WCI   1
CHEYENNE       FAIR      28  16  60 W9        29.95R WCI  19
TORRINGTON     FOG       15  13  91 CALM      29.99R VSB 1/4
PINE BLUFFS    CLOUDY    25  23  93 CALM      29.97S

$$


USA.gov is the U.S. government's official web portal to all federal, state and local government web resources and services.